Location: Le Domaine
(47.0333°N, 76.5361°W)
Time: 05:05:26
(UTC-05:00)

Transit 2A Rocket - Pass Details

Date: 17 November 2019
Orbit: 594 x 909 km, 66.7° (Epoch: 07 December)

Event Time Altitude Azimuth Distance (km) Brightness Sun altitude
Exits shadow 05:57:12 - 336° (NNW) 2,226 7.0 -12.7°
Reaches altitude 10° 05:57:58 10° 339° (NNW) 1,941 6.8 -12.6°
Maximum altitude 06:02:00 37° 48° (NE) 950 5.8 -12.0°
Drops below altitude 10° 06:06:10 10° 117° (ESE) 2,003 8.7 -11.3°
Sets 06:08:38 0° 125° (SE) 2,946 9.6 -10.9°
